SL-16 DEB

Satellite information

Favourite Embed

Satellite Type and Status

DEBRISIN ORBIT

Key statistics

Satellite SL-16 DEB at a glance.

Uptime

11790

Days in orbit

Revolutions

≈ 14.0

Per day

Orbit

LEO

Low Earth Orbit

Inclination

71.0

Latest

Satellite identification and parameters

Extended collection of information and parameters for SL-16 DEB.

Object identification

Identified? True

Debris? True

Object name: SL-16 DEB

International designator: 1993-016AW

Object number (NORAD): 39872

Object ID (CCSDS): 39872

Country: COMMONWEALTH OF INDEPENDENT STATES (CIS)

Current information (Y/N): Y

RCS size: SMALL

Orbital parameters

Period: 102.857 minutes

Inclination: 70.9925 deg

SMA: 7271.943 km

Apoapsis: 991.554 km

Periapsis: 796.062 km

RAAN: 345.2646 deg

Eccentricy: 0.0134415

Argument of periapsis: 235.528 deg

Mean anomaly: 300.3581 deg

Mean motion: 13.99996835 rev/day

Mean motion (dot): 0.00000943 rev/day2

B* drag term: 0.00062178 1/REarth

Two-line elements (TLE)

Creation date: July 3, 2025, 5:26 p.m.

Reference frame: TEME

Reference center: EARTH

Epoch: July 3, 2025, 5:27 a.m. UTC

TLE line 0: 0 SL-16 DEB

TLE line 1: 1 39872U 93016AW 25184.22722153 .00000943 00000-0 62178-3 0 9995

TLE line 2: 2 39872 70.9925 345.2646 0134415 235.5280 300.3581 13.99996835563989

Live tracking on map

Real-time ground track for satellite SL-16 DEB.

In-orbit conjunctions

A list of the most updated potential collisions computed for object SL-16 DEB.

Target Orbit TCA Probability of collision Miss distance Type
COSMOS 1808 LEO 2025-06-14 13:27:48 0.0004035092 429.0 (m) PAYLOAD
COSMOS 2230 LEO 2024-06-18 23:53:55 0.0001244579 415.0 (m) PAYLOAD

Associated space launch

Second generation ELING satellite

SL-16 DEB was lifted into orbit during the mission ‘Zenit-2 | Tselina-2 13’, on board a Zenit-2 space rocket.

The launch took place on March 26, 1993, 2:21 a.m. from 45/1.

For more information about the launch, click the button.

Launch to space Zenit-2 | Tselina-2 13
Zenit-2 | Tselina-2 13

Agency: N/A

Status: Launch Successful

Launch date: March 26, 1993, 2:21 a.m. UTC

Rocket: Zenit-2

Launch pad: 45/1

Location: Baikonur Cosmodrome, Republic of Kazakhstan

...

Latest news about this satellite

There are no fresh news available about this satellite. Check back as we update our databases every day.


Newsletter sign-up

Weekly statistics, charts and insights to help you stay on top of the space industry.